[[{"header":{"parameterUnit":"m.s-1","parameterCategory":1,"la1":30.2992,"la2":30.254,"lo1":-89.0895,"lo2":-89.0443,"dy":0.0025,"dx":0.0025,"nx":19,"ny":19,"refTime":"2026-03-18T03:00:00:Z","depth":0,"parameterNumber":2,"parameterNumberName":"U-component_of_WINDS"},"data":[0,0,0,1.3273,1.3272,1.3259,1.3259,1.3236,1.3236,0,0,0,0,0,0,0,0,0,0,0,1.3274,1.3274,1.3273,1.3272,1.3259,1.3259,1.3236,1.3236,0,0,0,0,0,0,0,0,0,0,0,1.3274,1.3274,1.3273,1.3272,1.3259,1.3259,1.3236,1.3248,0,0,0,0,0,0,0,0,0,0,1.3262,1.3261,1.3274,1.3273,1.3272,1.3259,1.3259,1.3249,1.3247,1.324,0,1.3233,0,1.3234,1.3234,1.3234,0,0,0,1.3274,1.3262,1.3261,1.3273,1.3272,1.3259,1.3266,1.3248,1.3247,1.3238,1.3233,1.3232,1.3234,1.3234,1.3234,1.3185,1.3185,0,0,1.3275,1.327,1.3262,1.326,1.3262,1.3266,1.3265,1.3247,1.3241,1.3233,1.3232,1.3234,1.3234,1.3234,1.3186,1.3185,0,0,0,1.3276,1.327,1.327,1.326,1.3259,1.3266,1.3265,1.3242,1.3242,1.3232,1.3233,1.3234,1.3233,1.3186,1.3186,1.3165,0,0,0,1.3276,1.3271,1.327,1.3267,1.3259,1.325,1.326,1.3244,1.3242,1.3233,1.3234,1.3233,1.3186,1.3186,1.3167,1.3156,0,0,0,1.3276,1.3271,1.3268,1.3267,1.3261,1.3251,1.325,1.3243,1.3243,1.3234,1.3233,1.3187,1.3186,1.3168,1.3158,1.3141,0,0,0,1.3273,1.3251,1.3268,1.3243,1.3261,1.3239,1.325,1.3234,1.3224,1.3234,1.3186,1.3186,1.3168,1.3159,1.3142,1.3125,1.3118,0,0,1.3242,1.3247,1.3232,1.3247,1.3221,1.3241,1.3211,1.3207,1.321,1.3193,1.3192,1.3166,1.3158,1.3141,1.3081,1.3075,0,0,0,1.3221,1.321,1.3204,1.3195,1.3191,1.3186,1.3187,1.3185,1.3171,1.3201,1.3156,1.3151,1.3142,1.3134,1.3129,1.312,1.3182,1.3182,1.3182,1.3169,1.3174,1.315,1.3154,1.3145,1.3145,1.3138,1.3135,1.3144,1.3133,1.3127,1.309,1.3081,1.3077,1.3068,1.312,1.312,1.312,1.312,1.3122,1.3107,1.3119,1.31,1.3105,1.3089,1.3088,1.3094,1.3079,1.3095,1.3087,1.3103,1.307,1.3062,1.3118,1.3118,1.3119,1.3119,1.3119,1.3088,1.3082,1.308,1.3066,1.3055,1.3059,1.3043,1.3049,1.3054,1.3046,1.304,1.3041,1.304,1.3043,1.3043,1.3043,1.3043,1.3043,1.3043,1.3053,1.3051,1.3038,1.3031,1.3026,1.3018,1.3018,1.3012,1.3006,1.3011,1.3011,1.3019,1.3067,1.3078,1.3041,1.3041,1.3041,1.3041,1.3042,1.3002,1.3014,1.2993,1.2987,1.2979,1.2966,1.2974,1.296,1.2956,1.2948,1.2958,1.2992,1.2997,1.3001,1.301,1.2958,1.2958,1.2958,1.2958,1.2972,1.2975,1.2955,1.2944,1.2935,1.2939,1.2913,1.2912,1.2912,1.291,1.2918,1.2931,1.2935,1.2937,1.2943,1.2951,1.2885,1.2885,1.2885,1.294,1.2942,1.292,1.2922,1.2915,1.2909,1.2885,1.2871,1.2874,1.2882,1.2907,1.291,1.2931,1.2938,1.2946,1.2954,1.297,0,0]},{"header":{"parameterUnit":"m.s-1","parameterCategory":1,"la1":30.2992,"la2":30.254,"lo1":-89.0895,"lo2":-89.0443,"dy":0.0025,"dx":0.0025,"nx":19,"ny":19,"refTime":"2026-03-18T03:00:00:Z","depth":0,"parameterNumber":3,"parameterNumberName":"V-component_of_WINDS"},"data":[0,0,0,2.1382,2.1381,2.1347,2.1347,2.1299,2.1299,0,0,0,0,0,0,0,0,0,0,0,2.1392,2.1391,2.1382,2.1381,2.1347,2.1347,2.1299,2.1299,0,0,0,0,0,0,0,0,0,0,0,2.1392,2.1391,2.1391,2.1381,2.1347,2.1347,2.1299,2.1326,0,0,0,0,0,0,0,0,0,0,2.136,2.1368,2.1391,2.1391,2.1381,2.1347,2.1347,2.1328,2.1325,2.1314,0,2.1305,0,2.1301,2.1295,2.1295,0,0,0,2.1382,2.1371,2.1363,2.1391,2.1381,2.1347,2.1363,2.1326,2.1322,2.131,2.1304,2.1303,2.13,2.1295,2.1295,2.1234,2.1233,0,0,2.1383,2.1385,2.1365,2.136,2.1367,2.1364,2.1362,2.1324,2.1318,2.1304,2.1301,2.13,2.1295,2.1294,2.1234,2.1233,0,0,0,2.1389,2.1386,2.1379,2.1362,2.1356,2.1363,2.136,2.1319,2.1317,2.1301,2.1299,2.1294,2.1294,2.1234,2.1234,2.122,0,0,0,2.139,2.1389,2.1379,2.138,2.1357,2.1338,2.1356,2.132,2.1315,2.1299,2.1294,2.1293,2.1235,2.1234,2.1221,2.1213,0,0,0,2.1394,2.139,2.1385,2.138,2.1365,2.1338,2.1334,2.1319,2.1314,2.1295,2.1293,2.1235,2.1234,2.1222,2.1214,2.1196,0,0,0,2.1398,2.1373,2.1384,2.1355,2.1366,2.1331,2.1334,2.1308,2.129,2.1294,2.1234,2.1234,2.1222,2.1215,2.1197,2.118,2.1173,0,0,2.1366,2.1369,2.1351,2.1361,2.1324,2.1336,2.1297,2.1279,2.1276,2.1247,2.1246,2.1221,2.1214,2.1196,2.1138,2.1133,0,0,0,2.1342,2.1329,2.1319,2.1303,2.1289,2.1276,2.1265,2.1258,2.1234,2.1262,2.121,2.1206,2.1195,2.1187,2.1182,2.1172,2.123,2.1231,2.1231,2.1297,2.1295,2.1265,2.1259,2.1243,2.1231,2.1217,2.1206,2.1208,2.1196,2.1187,2.1152,2.1143,2.1139,2.1129,2.1179,2.1179,2.1179,2.1179,2.1249,2.123,2.1234,2.1206,2.1204,2.118,2.1167,2.1169,2.1146,2.1159,2.1149,2.1163,2.1134,2.1124,2.1178,2.1178,2.1178,2.1178,2.1178,2.1218,2.1208,2.1202,2.1178,2.1159,2.1153,2.113,2.1129,2.1127,2.1118,2.1107,2.1107,2.1106,2.1113,2.1113,2.1113,2.1113,2.1113,2.1113,2.1188,2.1181,2.1163,2.1146,2.1135,2.112,2.1108,2.1097,2.1083,2.1084,2.1084,2.1086,2.1132,2.1143,2.1111,2.1111,2.1111,2.1111,2.1112,2.1137,2.1149,2.112,2.1109,2.1089,2.107,2.1069,2.1046,2.1036,2.1024,2.1029,2.1064,2.1066,2.1069,2.1078,2.1031,2.1031,2.1031,2.1031,2.111,2.1112,2.1082,2.1064,2.1047,2.1043,2.1008,2.0998,2.0989,2.0983,2.099,2.1002,2.1005,2.1005,2.101,2.1018,2.0956,2.0956,2.0956,2.1078,2.1077,2.1049,2.1042,2.1026,2.1012,2.098,2.0957,2.095,2.0953,2.0977,2.098,2.1,2.1006,2.1009,2.1016,2.1031,0,0]}]]